Hamilton, OH

3:55 PM EDT on April 24, 2017 (GMT -0400)
Butler County Regional

Weather History for KHAO - May, 2013

Change the Weather History Date:

Tuesday, May 28, 2013

  Actual Average (KLUK) Record (KLUK)
Temperature  
Mean Temperature 75 °F -  
Max Temperature 84 °F 77 °F 91 °F (1987)
Min Temperature 66 °F 55 °F 42 °F (1971)
Cooling Degree Days 10    
Growing Degree Days 25 (Base 50)    
Moisture  
Dew Point 61 °F    
Average Humidity 59    
Maximum Humidity 84    
Minimum Humidity 45    
Precipitation  
Precipitation 0.00 in - - ()
Sea Level Pressure  
Sea Level Pressure 29.98 in    
Wind  
Wind Speed 5 mph (SSW)    
Max Wind Speed 10 mph    
Max Gust Speed 23 mph    
Visibility 10 miles    
Events Rain    
Averages and records for this station are not official NWS values.
T = Trace of Precipitation, MM = Missing Value Source: NWS Daily Summary

Daily Weather History Graph

Daily Weather History Graph

Search for Another Location

Airport or City:

Trip Planner

Search our weather history database for the weather conditions in past years. The results will help you decide how hot, cold, wet, or windy it might be!

Date:

Astronomy

May. 28, 2013 Rise Set
Actual Time 6:14 AM EDT 8:56 PM EDT
Civil Twilight 5:43 AM EDT 9:27 PM EDT
Nautical Twilight 5:04 AM EDT 10:07 PM EDT
Astronomical Twilight 4:20 AM EDT 10:51 PM EDT
Moon No Moon Rise 10:01 AM EDT (5/28)
Length of Visible Light 15h 44m
Length of Day
14h 41m
Waning Gibbous, 83% of the Moon is Illuminated
May 28
Waning Gibbous
May 31
Last Quarter
Jun 8
New
Jun 16
First Quarter
Jun 23
Full

Hourly Weather History & Observations

Time (EDT) Temp. Heat Index Dew Point Humidity Pressure Visibility Wind Dir Wind Speed Gust Speed Precip Events Conditions
12:53 AM 75.0 °F - 57.9 °F 55% 29.96 in 10.0 mi SW 6.9 mph - N/A   Clear
1:53 AM 73.9 °F - 57.9 °F 57% 29.97 in 10.0 mi SW 4.6 mph - N/A   Scattered Clouds
2:53 AM 72.0 °F - 59.0 °F 64% 29.98 in 10.0 mi Calm Calm - N/A   Partly Cloudy
3:53 AM 68.0 °F - 60.1 °F 76% 29.99 in 10.0 mi Calm Calm - N/A   Overcast
4:53 AM 66.9 °F - 62.1 °F 84% 29.99 in 10.0 mi Calm Calm - 0.00 in Rain Light Rain
5:53 AM 66.9 °F - 62.1 °F 84% 30.00 in 10.0 mi Calm Calm - 0.00 in   Partly Cloudy
6:53 AM 70.0 °F - 60.1 °F 71% 30.01 in 10.0 mi Calm Calm - N/A   Clear
7:53 AM 71.1 °F - 61.0 °F 70% 30.02 in 10.0 mi Variable 3.5 mph - N/A   Clear
8:53 AM 75.0 °F - 62.1 °F 64% 30.02 in 10.0 mi SW 9.2 mph - N/A   Clear
9:53 AM 79.0 °F - 63.0 °F 58% 30.02 in 10.0 mi SW 9.2 mph 17.3 mph N/A   Partly Cloudy
10:53 AM 79.0 °F - 63.0 °F 58% 30.01 in 10.0 mi SSW 6.9 mph 21.9 mph N/A   Clear
11:53 AM 80.1 °F 81.7 °F 64.0 °F 58% 30.01 in 10.0 mi SW 8.1 mph 20.7 mph N/A   Clear
12:53 PM 82.0 °F 84.1 °F 66.0 °F 58% 30.00 in 10.0 mi SW 9.2 mph - N/A   Partly Cloudy
1:53 PM 82.9 °F 85.0 °F 66.0 °F 56% 29.99 in 10.0 mi SW 9.2 mph - N/A   Scattered Clouds
2:53 PM 82.0 °F 83.8 °F 64.9 °F 56% 29.98 in 10.0 mi SSW 9.2 mph 23.0 mph N/A   Scattered Clouds
3:53 PM 84.0 °F 84.4 °F 61.0 °F 46% 29.96 in 10.0 mi SSW 6.9 mph 20.7 mph N/A   Clear
4:53 PM 82.9 °F 83.2 °F 60.1 °F 46% 29.96 in 10.0 mi SSW 10.4 mph 18.4 mph N/A   Clear
5:53 PM 82.0 °F 82.1 °F 59.0 °F 45% 29.95 in 10.0 mi SSW 8.1 mph 16.1 mph N/A   Clear
6:53 PM 82.0 °F 82.1 °F 59.0 °F 45% 29.94 in 10.0 mi SSW 5.8 mph - N/A   Clear
7:53 PM 81.0 °F 81.6 °F 60.1 °F 49% 29.95 in 10.0 mi SSW 4.6 mph - N/A   Clear
8:53 PM 77.0 °F - 61.0 °F 58% 29.96 in 10.0 mi SSW 3.5 mph - N/A   Clear
9:53 PM 78.1 °F - 60.1 °F 54% 29.96 in 10.0 mi SSW 3.5 mph - N/A   Clear
10:53 PM 75.9 °F - 59.0 °F 56% 29.97 in 10.0 mi South 3.5 mph - N/A   Clear
11:53 PM 73.9 °F - 59.0 °F 59% 29.99 in 10.0 mi SSW 4.6 mph - N/A   Clear